DECAYED

STARLINK-1735, 46565 (Decayed)

Orbit data source: Space-Track

STARLINK-1735, 46565 was a payload satellite owned by SpaceX/Seattle (US) in LEO that was launched on Tue, 06 Oct 2020 UTC via an FALCON 9 launch vehicle from the Air Force Eastern Test Range (AFETR). Payload-class satellites include a variety of spacecraft equipped with specific instruments for various scientific and technological missions. These include communications satellites like Starlink; space stations such as the ISS; scientific satellites like the Hubble; Earth observation satellites from companies like Planet Labs, Umbra, and HawkEye 360; GPS; miniature CubeSats for education and research; and military/defense satellites.

Not visible in the next 10 days
Identifier
46565, 2020-070AK
Orbit
Decayed
Country
Flag of USUS
Related business
Manufacturer
SpaceX/Seattle
Mission
Decayed Commercial Communications
Bus & Motor
STARLINK, Unknown motor
Mass
260 kg wet, ~248 kg dry
Launch date (UTC)
2020-10-06 (6 years ago)
Launch vehicle
FALCON 9
Launch site
Air Force Eastern Test Range (AFETR)
Object type
Payload
Rocket body
Debris
Shape & HBR
Box + 1 Pan, 10.1 m
Radar Cross Section
13.562 m², Large (>1 m²)

Expand to show TLE details & history
Last TLE update: 2 weeks ago

TLE from 2 weeks ago
0 STARLINK-1735
1 46565U 20070AK  26190.59813189  .08599694  12559-4  25384-3 0  9998
2 46565  53.0111 227.1364 0005448 309.8415  50.2153 16.44953540319588
Epoch: 2026-07-09T14:21Z
TLE epoch observation values (Epoch: 2026-07-09T14:21:18.595Z)
Latitude
-0.00004°
Longitude
84.27114°
Altitude
151.31 km
Speed
7.818 km/s
True Right ascension
15h 08m 32s
True Declination
0° 00' 00"
Sunlit
Object was in full shadow at epoch
Visualization orbit readout
Latitude
Unknown
Longitude
Unknown
Altitude
Unknown
Speed
Unknown
Apparent Right ascension
Unknown
Apparent Declination
Unknown
Sunlit
N/A
Visualization observer readout
Local Sidereal Time
01:04:10
Azimuth
Unknown
Elevation
Unknown
Doppler factor
Unknown
Orbital elements
Apogee altitude
156.511 km
Perigee altitude
149.394 km
Semi-major axis
6,531.089 km
Eccentricity
0.00054
Inclination
53.0111°
RAAN
227.1364°
Arg. of periapsis
309.8415°
True anomaly
50.2633°
Mean anomaly
50.2153°
Eccentric anomaly
50.2393°
Mean motion
4.11211 °/min
Orbital period
87.55 mins
BSTAR
0.00025384
Loading maneuver chart data...
Computing Atmospheric mass density...

Documentation

Showing up to 5 results
|